Time,TemperatureF,DewpointF,PressureIn,WindDirection,WindDirectionDegrees,WindSpeedMPH,WindSpeedGustMPH,Humidity,HourlyPrecipIn,Conditions,Clouds,dailyrainin,SoftwareType,DateUTC
2013-07-12 00:01:00,56.0,40.0,-100.00,NE,40,1.0,6.0,53,0.00,,,0.00,,2013-07-12 08:01:00,
2013-07-12 00:11:00,56.0,40.0,-100.00,NE,40,1.0,6.0,53,0.00,,,0.00,,2013-07-12 08:11:00,
2013-07-12 00:32:00,56.0,40.0,-100.00,NE,55,4.0,6.0,53,0.00,,,0.00,,2013-07-12 08:32:00,
2013-07-12 00:42:00,56.0,40.0,-100.00,NE,55,4.0,6.0,53,0.00,,,0.00,,2013-07-12 08:42:00,
2013-07-12 00:53:00,56.0,40.0,-100.00,NE,55,6.0,9.0,55,0.00,,,0.00,,2013-07-12 08:53:00,
2013-07-12 01:02:00,56.0,40.0,-100.00,NE,55,6.0,9.0,55,0.00,,,0.00,,2013-07-12 09:02:00,
2013-07-12 01:12:00,56.0,40.0,-100.00,NE,55,6.0,9.0,55,0.00,,,0.00,,2013-07-12 09:12:00,
2013-07-12 01:32:00,56.0,40.0,-100.00,ENE,75,4.0,9.0,56,0.00,,,0.00,,2013-07-12 09:32:00,
2013-07-12 01:42:00,56.0,40.0,-100.00,ENE,75,4.0,9.0,56,0.00,,,0.00,,2013-07-12 09:42:00,
2013-07-12 01:52:00,55.0,40.0,-100.00,NE,45,4.0,12.0,55,0.00,,,0.00,,2013-07-12 09:52:00,
2013-07-12 02:01:00,55.0,40.0,-100.00,NE,45,4.0,12.0,55,0.00,,,0.00,,2013-07-12 10:01:00,
2013-07-12 02:11:00,55.0,40.0,-100.00,NE,45,4.0,12.0,55,0.00,,,0.00,,2013-07-12 10:11:00,
2013-07-12 02:33:00,56.0,38.0,-100.00,NE,55,6.0,11.0,52,0.00,,,0.00,,2013-07-12 10:33:00,
2013-07-12 02:42:00,56.0,38.0,-100.00,NE,55,6.0,11.0,52,0.00,,,0.00,,2013-07-12 10:42:00,
2013-07-12 03:02:00,55.0,38.0,-100.00,NE,55,6.0,12.0,52,0.00,,,0.00,,2013-07-12 11:02:00,
2013-07-12 03:11:00,55.0,38.0,-100.00,NE,55,6.0,12.0,52,0.00,,,0.00,,2013-07-12 11:11:00,
2013-07-12 03:32:00,54.0,38.0,-100.00,NE,50,8.0,12.0,52,0.00,,,0.00,,2013-07-12 11:32:00,
2013-07-12 03:43:00,54.0,38.0,-100.00,NE,50,8.0,12.0,52,0.00,,,0.00,,2013-07-12 11:43:00,
2013-07-12 03:52:00,54.0,37.0,-100.00,NE,55,7.0,12.0,52,0.00,,,0.00,,2013-07-12 11:52:00,
2013-07-12 04:01:00,54.0,37.0,-100.00,NE,55,7.0,12.0,52,0.00,,,0.00,,2013-07-12 12:01:00,
2013-07-12 04:11:00,54.0,37.0,-100.00,NE,55,7.0,12.0,52,0.00,,,0.00,,2013-07-12 12:11:00,
2013-07-12 04:32:00,54.0,37.0,-100.00,NE,55,7.0,11.0,52,0.00,,,0.00,,2013-07-12 12:32:00,
2013-07-12 04:43:00,54.0,37.0,-100.00,NE,55,7.0,11.0,52,0.00,,,0.00,,2013-07-12 12:43:00,
2013-07-12 04:52:00,54.0,37.0,-100.00,ENE,60,4.0,10.0,52,0.00,,,0.00,,2013-07-12 12:52:00,
2013-07-12 05:01:00,54.0,37.0,-100.00,ENE,60,4.0,10.0,52,0.00,,,0.00,,2013-07-12 13:01:00,
2013-07-12 05:12:00,54.0,37.0,-100.00,ENE,60,4.0,10.0,52,0.00,,,0.00,,2013-07-12 13:12:00,
2013-07-12 05:32:00,54.0,37.0,-100.00,ENE,65,6.0,12.0,52,0.00,,,0.00,,2013-07-12 13:32:00,
2013-07-12 05:43:00,54.0,37.0,-100.00,ENE,65,6.0,12.0,52,0.00,,,0.00,,2013-07-12 13:43:00,
2013-07-12 06:02:00,54.0,37.0,-100.00,ENE,60,9.0,13.0,51,0.00,,,0.00,,2013-07-12 14:02:00,
2013-07-12 06:11:00,54.0,37.0,-100.00,ENE,60,9.0,13.0,51,0.00,,,0.00,,2013-07-12 14:11:00,
2013-07-12 06:32:00,55.0,37.0,-100.00,NE,45,4.0,12.0,51,0.00,,,0.00,,2013-07-12 14:32:00,
2013-07-12 06:43:00,55.0,37.0,-100.00,NE,45,4.0,12.0,51,0.00,,,0.00,,2013-07-12 14:43:00,
2013-07-12 07:01:00,54.0,36.0,-100.00,NE,45,9.0,13.0,52,0.00,,,0.00,,2013-07-12 15:01:00,
2013-07-12 07:43:00,55.0,37.0,-100.00,ENE,60,9.0,12.0,50,0.00,,,0.00,,2013-07-12 15:43:00,
2013-07-12 10:20:00,62.0,38.0,-100.00,ENE,65,3.0,8.0,41,-99.99,,,-99.99,,2013-07-12 18:20:00,
2013-07-12 10:34:00,61.0,39.0,-100.00,ENE,60,4.0,-999.0,44,-99.99,,,-99.99,,2013-07-12 18:34:00,
2013-07-12 10:45:00,61.0,39.0,-100.00,ENE,60,4.0,-999.0,44,-99.99,,,-99.99,,2013-07-12 18:45:00,
2013-07-12 10:53:00,62.0,38.0,-100.00,ENE,65,3.0,8.0,41,-99.99,,,-99.99,,2013-07-12 18:53:00,
2013-07-12 11:03:00,62.0,38.0,-100.00,ENE,65,3.0,8.0,41,-99.99,,,-99.99,,2013-07-12 19:03:00,
2013-07-12 11:13:00,62.0,38.0,-100.00,ENE,65,3.0,8.0,41,-99.99,,,-99.99,,2013-07-12 19:13:00,
2013-07-12 11:44:00,63.0,38.0,-100.00,ENE,60,3.0,9.0,39,0.00,,,-99.99,,2013-07-12 19:44:00,
2013-07-12 12:02:00,64.0,38.0,-100.00,ESE,115,4.0,11.0,38,0.00,,,-99.99,,2013-07-12 20:02:00,
2013-07-12 12:12:00,64.0,38.0,-100.00,ESE,115,4.0,11.0,38,0.00,,,-99.99,,2013-07-12 20:12:00,
2013-07-12 12:33:00,65.0,37.0,-100.00,NE,55,4.0,11.0,35,0.00,,,-99.99,,2013-07-12 20:33:00,
2013-07-12 12:43:00,65.0,37.0,-100.00,NE,55,4.0,11.0,35,0.00,,,-99.99,,2013-07-12 20:43:00,
2013-07-12 12:53:00,67.0,37.0,-100.00,ENE,70,4.0,9.0,33,0.00,,,-99.99,,2013-07-12 20:53:00,
2013-07-12 13:02:00,67.0,37.0,-100.00,ENE,70,4.0,9.0,33,0.00,,,-99.99,,2013-07-12 21:02:00,
2013-07-12 13:14:00,67.0,37.0,-100.00,ENE,70,4.0,9.0,33,0.00,,,-99.99,,2013-07-12 21:14:00,
2013-07-12 13:20:00,67.0,35.0,-100.00,NE,40,4.0,10.0,30,0.00,,,-99.99,,2013-07-12 21:20:00,
2013-07-12 13:33:00,67.0,36.0,-100.00,SE,135,2.0,9.0,32,0.00,,,-99.99,,2013-07-12 21:33:00,
2013-07-12 13:44:00,67.0,36.0,-100.00,SE,135,2.0,9.0,32,0.00,,,-99.99,,2013-07-12 21:44:00,
2013-07-12 13:54:00,67.0,35.0,-100.00,NE,40,4.0,10.0,30,0.00,,,-99.99,,2013-07-12 21:54:00,
2013-07-12 14:02:00,67.0,35.0,-100.00,NE,40,4.0,10.0,30,0.00,,,-99.99,,2013-07-12 22:02:00,
2013-07-12 14:13:00,67.0,35.0,-100.00,NE,40,4.0,10.0,30,0.00,,,-99.99,,2013-07-12 22:13:00,
2013-07-12 14:43:00,70.0,36.0,-100.00,NNE,30,2.0,6.0,28,0.00,,,-99.99,,2013-07-12 22:43:00,
2013-07-12 14:50:00,71.0,36.0,-100.00,South,185,3.0,10.0,27,0.00,,,-99.99,,2013-07-12 22:50:00,
2013-07-12 14:53:00,70.0,36.0,-100.00,SSE,165,3.0,9.0,28,0.00,,,-99.99,,2013-07-12 22:53:00,
2013-07-12 15:03:00,70.0,36.0,-100.00,SSE,165,3.0,9.0,28,0.00,,,-99.99,,2013-07-12 23:03:00,
2013-07-12 15:33:00,71.0,36.0,-100.00,South,185,3.0,10.0,27,0.00,,,-99.99,,2013-07-12 23:33:00,
2013-07-12 15:42:00,71.0,36.0,-100.00,South,185,3.0,10.0,27,0.00,,,-99.99,,2013-07-12 23:42:00,
2013-07-12 16:45:00,72.0,35.0,-100.00,SSE,155,3.0,10.0,25,0.00,,,-99.99,,2013-07-13 00:45:00,
2013-07-12 17:02:00,73.0,35.0,-100.00,South,175,2.0,6.0,24,0.00,,,-99.99,,2013-07-13 01:02:00,
2013-07-12 17:11:00,73.0,35.0,-100.00,South,175,2.0,6.0,24,0.00,,,-99.99,,2013-07-13 01:11:00,
2013-07-12 17:22:00,75.0,36.0,-100.00,NE,55,1.0,6.0,24,0.00,,,-99.99,,2013-07-13 01:22:00,
2013-07-12 17:45:00,75.0,36.0,-100.00,NE,55,1.0,6.0,24,0.00,,,-99.99,,2013-07-13 01:45:00,
2013-07-12 17:53:00,75.0,36.0,-100.00,SSE,160,4.0,9.0,23,0.00,,,-99.99,,2013-07-13 01:53:00,
2013-07-12 18:04:00,75.0,36.0,-100.00,SSE,160,4.0,9.0,23,0.00,,,-99.99,,2013-07-13 02:04:00,
2013-07-12 18:13:00,75.0,36.0,-100.00,SSE,160,4.0,9.0,23,0.00,,,-99.99,,2013-07-13 02:13:00,
2013-07-12 18:35:00,75.0,35.0,-100.00,SSE,165,3.0,8.0,23,0.00,,,-99.99,,2013-07-13 02:35:00,
2013-07-12 18:44:00,75.0,35.0,-100.00,SSE,165,3.0,8.0,23,0.00,,,-99.99,,2013-07-13 02:44:00,
2013-07-12 18:53:00,76.0,35.0,-100.00,ESE,110,1.0,9.0,22,0.00,,,-99.99,,2013-07-13 02:53:00,
2013-07-12 19:04:00,76.0,35.0,-100.00,ESE,110,1.0,9.0,22,0.00,,,-99.99,,2013-07-13 03:04:00,
2013-07-12 19:12:00,76.0,35.0,-100.00,ESE,110,1.0,9.0,22,0.00,,,-99.99,,2013-07-13 03:12:00,
2013-07-12 19:34:00,75.0,35.0,-100.00,SSE,160,2.0,6.0,23,0.00,,,-99.99,,2013-07-13 03:34:00,
2013-07-12 19:44:00,75.0,35.0,-100.00,SSE,160,2.0,6.0,23,0.00,,,-99.99,,2013-07-13 03:44:00,
2013-07-12 19:54:00,74.0,34.0,-100.00,SSW,200,2.0,8.0,23,0.00,,,-99.99,,2013-07-13 03:54:00,
2013-07-12 20:01:00,74.0,34.0,-100.00,SSW,200,2.0,8.0,23,0.00,,,-99.99,,2013-07-13 04:01:00,
2013-07-12 20:11:00,74.0,34.0,-100.00,SSW,200,2.0,8.0,23,0.00,,,-99.99,,2013-07-13 04:11:00,
2013-07-12 20:20:00,73.0,34.0,-100.00,South,175,2.0,6.0,23,0.00,,,-99.99,,2013-07-13 04:20:00,
2013-07-12 20:22:00,74.0,35.0,-100.00,South,170,1.0,6.0,23,0.00,,,-99.99,,2013-07-13 04:22:00,
2013-07-12 20:32:00,74.0,35.0,-100.00,South,170,1.0,6.0,23,0.00,,,-99.99,,2013-07-13 04:32:00,
2013-07-12 20:43:00,74.0,35.0,-100.00,South,170,1.0,6.0,23,0.00,,,-99.99,,2013-07-13 04:43:00,
2013-07-12 21:01:00,73.0,34.0,-100.00,South,175,2.0,6.0,23,0.00,,,-99.99,,2013-07-13 05:01:00,
2013-07-12 21:11:00,73.0,34.0,-100.00,South,175,2.0,6.0,23,0.00,,,-99.99,,2013-07-13 05:11:00,
2013-07-12 21:20:00,71.0,33.0,-100.00,SSE,155,2.0,5.0,24,0.00,,,-99.99,,2013-07-13 05:20:00,
2013-07-12 21:42:00,72.0,34.0,-100.00,SSE,165,3.0,6.0,24,0.00,,,-99.99,,2013-07-13 05:42:00,
2013-07-12 21:52:00,71.0,33.0,-100.00,SSE,155,2.0,5.0,24,0.00,,,-99.99,,2013-07-13 05:52:00,
2013-07-12 22:01:00,71.0,33.0,-100.00,SSE,155,2.0,5.0,24,0.00,,,-99.99,,2013-07-13 06:01:00,
2013-07-12 22:11:00,71.0,33.0,-100.00,SSE,155,2.0,5.0,24,0.00,,,-99.99,,2013-07-13 06:11:00,
2013-07-12 22:43:00,70.0,33.0,-100.00,SSE,150,2.0,5.0,24,0.00,,,-99.99,,2013-07-13 06:43:00,
2013-07-12 22:52:00,69.0,32.0,-100.00,SSE,160,1.0,3.0,25,0.00,,,-99.99,,2013-07-13 06:52:00,
2013-07-12 23:02:00,69.0,32.0,-100.00,SSE,160,1.0,3.0,25,0.00,,,-99.99,,2013-07-13 07:02:00,
2013-07-12 23:11:00,69.0,32.0,-100.00,SSE,160,1.0,3.0,25,0.00,,,-99.99,,2013-07-13 07:11:00,
2013-07-12 23:33:00,67.0,32.0,-100.00,SSE,150,0.0,1.0,26,0.00,,,-99.99,,2013-07-13 07:33:00,
2013-07-12 23:44:00,67.0,32.0,-100.00,SSE,150,0.0,1.0,26,0.00,,,-99.99,,2013-07-13 07:44:00,